Year,Month,Day,Hour,Minute,Value (Times are PST for temperature in C)
2011,05,17,00,00,4.70
2011,05,17,00,01,4.70
2011,05,17,00,02,4.70
2011,05,17,00,03,4.70
2011,05,17,00,04,4.70
2011,05,17,00,05,4.70
2011,05,17,00,06,4.60
2011,05,17,00,07,4.60
2011,05,17,00,08,4.60
2011,05,17,00,09,4.60
2011,05,17,00,10,4.60
2011,05,17,00,11,4.50
2011,05,17,00,12,4.50
2011,05,17,00,13,4.50
2011,05,17,00,14,4.50
2011,05,17,00,15,4.40
2011,05,17,00,16,4.40
2011,05,17,00,17,4.40
2011,05,17,00,18,4.40
2011,05,17,00,19,4.40
2011,05,17,00,20,4.40
2011,05,17,00,21,4.40
2011,05,17,00,22,4.30
2011,05,17,00,23,4.30
2011,05,17,00,24,4.30
2011,05,17,00,25,4.30
2011,05,17,00,26,4.30
2011,05,17,00,27,4.30
2011,05,17,00,28,4.30
2011,05,17,00,29,4.20
2011,05,17,00,30,4.20
2011,05,17,00,31,4.20
2011,05,17,00,32,4.20
2011,05,17,00,33,4.10
2011,05,17,00,34,4.10
2011,05,17,00,35,4.10
2011,05,17,00,36,4.10
2011,05,17,00,37,4.10
2011,05,17,00,38,4.10
2011,05,17,00,39,4.10
2011,05,17,00,40,4.10
2011,05,17,00,41,4.10
2011,05,17,00,42,4.10
2011,05,17,00,43,4.10
2011,05,17,00,44,4.10
2011,05,17,00,45,4.10
2011,05,17,00,46,4.10
2011,05,17,00,47,4.10
2011,05,17,00,48,4.10
2011,05,17,00,49,4.10
2011,05,17,00,50,4.10
2011,05,17,00,51,4.10
2011,05,17,00,52,4.10
2011,05,17,00,53,4.20
2011,05,17,00,54,4.20
2011,05,17,00,55,4.20
2011,05,17,00,56,4.20
2011,05,17,00,57,4.20
2011,05,17,00,58,4.20
2011,05,17,00,59,4.20
2011,05,17,01,00,4.20
2011,05,17,01,01,4.20
2011,05,17,01,02,4.20
2011,05,17,01,03,4.20
2011,05,17,01,04,4.20
2011,05,17,01,05,4.20
2011,05,17,01,06,4.20
2011,05,17,01,07,4.20
2011,05,17,01,08,4.20
2011,05,17,01,09,4.10
2011,05,17,01,10,4.10
2011,05,17,01,11,4.10
2011,05,17,01,12,4.10
2011,05,17,01,13,4.10
2011,05,17,01,14,4.10
2011,05,17,01,15,4.10
2011,05,17,01,16,4.10
2011,05,17,01,17,4.10
2011,05,17,01,18,4.00
2011,05,17,01,19,4.00
2011,05,17,01,20,4.00
2011,05,17,01,21,4.00
2011,05,17,01,22,3.90
2011,05,17,01,23,3.90
2011,05,17,01,24,3.90
2011,05,17,01,25,3.90
2011,05,17,01,26,3.90
2011,05,17,01,27,3.90
2011,05,17,01,28,3.90
2011,05,17,01,29,3.90
2011,05,17,01,30,3.90
2011,05,17,01,31,3.90
2011,05,17,01,32,3.80
2011,05,17,01,33,3.80
2011,05,17,01,34,3.80
2011,05,17,01,35,3.80
2011,05,17,01,36,3.80
2011,05,17,01,37,3.80
2011,05,17,01,38,3.80
2011,05,17,01,39,3.80
2011,05,17,01,40,3.80
2011,05,17,01,41,3.80
2011,05,17,01,42,3.70
2011,05,17,01,43,3.70
2011,05,17,01,44,3.70
2011,05,17,01,45,3.70
2011,05,17,01,46,3.70
2011,05,17,01,47,3.70
2011,05,17,01,48,3.70
2011,05,17,01,49,3.70
2011,05,17,01,50,3.70
2011,05,17,01,51,3.70
2011,05,17,01,52,3.70
2011,05,17,01,53,3.70
2011,05,17,01,54,3.70
2011,05,17,01,55,3.70
2011,05,17,01,56,3.70
2011,05,17,01,57,3.70
2011,05,17,01,58,3.70
2011,05,17,01,59,3.70
2011,05,17,02,00,3.70
2011,05,17,02,01,3.70
2011,05,17,02,02,3.70
2011,05,17,02,03,3.70
2011,05,17,02,04,3.70
2011,05,17,02,05,3.70
2011,05,17,02,06,3.70
2011,05,17,02,07,3.70
2011,05,17,02,08,3.70
2011,05,17,02,09,3.70
2011,05,17,02,10,3.70
2011,05,17,02,11,3.70
2011,05,17,02,12,3.70
2011,05,17,02,13,3.70
2011,05,17,02,14,3.70
2011,05,17,02,15,3.70
2011,05,17,02,16,3.70
2011,05,17,02,17,3.70
2011,05,17,02,18,3.70
2011,05,17,02,19,3.70
2011,05,17,02,20,3.70
2011,05,17,02,21,3.70
2011,05,17,02,22,3.70
2011,05,17,02,23,3.70
2011,05,17,02,24,3.70
2011,05,17,02,25,3.70
2011,05,17,02,26,3.60
2011,05,17,02,27,3.70
2011,05,17,02,28,3.70
2011,05,17,02,29,3.70
2011,05,17,02,30,3.70
2011,05,17,02,31,3.70
2011,05,17,02,32,3.60
2011,05,17,02,33,3.60
2011,05,17,02,34,3.60
2011,05,17,02,35,3.60
2011,05,17,02,36,3.60
2011,05,17,02,37,3.50
2011,05,17,02,38,3.50
2011,05,17,02,39,3.50
2011,05,17,02,40,3.50
2011,05,17,02,41,3.40
2011,05,17,02,42,3.40
2011,05,17,02,43,3.40
2011,05,17,02,44,3.40
2011,05,17,02,45,3.40
2011,05,17,02,46,3.40
2011,05,17,02,47,3.40
2011,05,17,02,48,3.40
2011,05,17,02,49,3.40
2011,05,17,02,50,3.40
2011,05,17,02,51,3.40
2011,05,17,02,52,3.40
2011,05,17,02,53,3.40
2011,05,17,02,54,3.40
2011,05,17,02,55,3.40
2011,05,17,02,56,3.40
2011,05,17,02,57,3.40
2011,05,17,02,58,3.40
2011,05,17,02,59,3.40
2011,05,17,03,00,3.40
2011,05,17,03,01,3.30
2011,05,17,03,02,3.30
2011,05,17,03,03,3.30
2011,05,17,03,06,3.30
2011,05,17,03,07,3.30
2011,05,17,03,08,3.30
2011,05,17,03,09,3.20
2011,05,17,03,10,3.20
2011,05,17,03,11,3.20
2011,05,17,03,12,3.20
2011,05,17,03,13,3.10
2011,05,17,03,14,3.10
2011,05,17,03,15,3.10
2011,05,17,03,16,3.10
2011,05,17,03,17,3.10
2011,05,17,03,18,3.10
2011,05,17,03,19,3.10
2011,05,17,03,20,3.00
2011,05,17,03,21,3.10
2011,05,17,03,22,3.00
2011,05,17,03,23,3.10
2011,05,17,03,24,3.00
2011,05,17,03,25,3.00
2011,05,17,03,26,3.00
2011,05,17,03,27,3.00
2011,05,17,03,28,3.00
2011,05,17,03,29,3.00
2011,05,17,03,30,3.00
2011,05,17,03,31,3.00
2011,05,17,03,32,3.00
2011,05,17,03,33,3.00
2011,05,17,03,34,3.00
2011,05,17,03,35,3.00
2011,05,17,03,36,3.00
2011,05,17,03,37,3.00
2011,05,17,03,38,3.00
2011,05,17,03,39,3.00
2011,05,17,03,40,2.90
2011,05,17,03,41,2.90
2011,05,17,03,42,2.90
2011,05,17,03,43,2.90
2011,05,17,03,44,2.90
2011,05,17,03,45,2.90
2011,05,17,03,46,2.90
2011,05,17,03,47,2.90
2011,05,17,03,48,2.90
2011,05,17,03,49,2.90
2011,05,17,03,50,2.90
2011,05,17,03,51,2.90
2011,05,17,03,52,2.90
2011,05,17,03,53,2.90
2011,05,17,03,54,2.90
2011,05,17,03,55,2.90
2011,05,17,03,56,2.90
2011,05,17,03,57,2.90
2011,05,17,03,58,2.90
2011,05,17,03,59,2.90
2011,05,17,04,00,2.90
2011,05,17,04,01,2.90
2011,05,17,04,02,2.80
2011,05,17,04,03,2.80
2011,05,17,04,04,2.80
2011,05,17,04,05,2.80
2011,05,17,04,06,2.80
2011,05,17,04,07,2.80
2011,05,17,04,08,2.80
2011,05,17,04,09,2.80
2011,05,17,04,10,2.80
2011,05,17,04,11,2.80
2011,05,17,04,12,2.80
2011,05,17,04,13,2.80
2011,05,17,04,14,2.80
2011,05,17,04,15,2.80
2011,05,17,04,16,2.80
2011,05,17,04,17,2.80
2011,05,17,04,18,2.80
2011,05,17,04,19,2.70
2011,05,17,04,20,2.70
2011,05,17,04,21,2.70
2011,05,17,04,22,2.70
2011,05,17,04,23,2.70
2011,05,17,04,24,2.70
2011,05,17,04,25,2.70
2011,05,17,04,26,2.70
2011,05,17,04,27,2.70
2011,05,17,04,28,2.70
2011,05,17,04,29,2.70
2011,05,17,04,30,2.70
2011,05,17,04,31,2.70
2011,05,17,04,32,2.70
2011,05,17,04,33,2.70
2011,05,17,04,34,2.70
2011,05,17,04,35,2.70
2011,05,17,04,36,2.70
2011,05,17,04,37,2.70
2011,05,17,04,38,2.70
2011,05,17,04,39,2.70
2011,05,17,04,40,2.70
2011,05,17,04,41,2.70
2011,05,17,04,42,2.70
2011,05,17,04,43,2.70
2011,05,17,04,44,2.70
2011,05,17,04,45,2.70
2011,05,17,04,46,2.70
2011,05,17,04,47,2.70
2011,05,17,04,48,2.70
2011,05,17,04,49,2.60
2011,05,17,04,50,2.60
2011,05,17,04,51,2.60
2011,05,17,04,52,2.60
2011,05,17,04,53,2.60
2011,05,17,04,54,2.60
2011,05,17,04,55,2.60
2011,05,17,04,56,2.60
2011,05,17,04,57,2.50
2011,05,17,04,58,2.50
2011,05,17,04,59,2.50
2011,05,17,05,00,2.50
2011,05,17,05,01,2.50
2011,05,17,05,02,2.50
2011,05,17,05,03,2.50
2011,05,17,05,04,2.50
2011,05,17,05,05,2.50
2011,05,17,05,06,2.60
2011,05,17,05,07,2.60
2011,05,17,05,08,2.60
2011,05,17,05,09,2.60
2011,05,17,05,10,2.60
2011,05,17,05,11,2.50
2011,05,17,05,12,2.50
2011,05,17,05,13,2.50
2011,05,17,05,14,2.50
2011,05,17,05,15,2.50
2011,05,17,05,16,2.40
2011,05,17,05,17,2.40
2011,05,17,05,18,2.40
2011,05,17,05,19,2.40
2011,05,17,05,20,2.40
2011,05,17,05,21,2.40
2011,05,17,05,22,2.40
2011,05,17,05,23,2.40
2011,05,17,05,24,2.40
2011,05,17,05,25,2.40
2011,05,17,05,26,2.40
2011,05,17,05,27,2.40
2011,05,17,05,28,2.40
2011,05,17,05,29,2.30
2011,05,17,05,30,2.30
2011,05,17,05,31,2.30
2011,05,17,05,32,2.30
2011,05,17,05,33,2.30
2011,05,17,05,34,2.30
2011,05,17,05,35,2.30
2011,05,17,05,36,2.30
2011,05,17,05,37,2.30
2011,05,17,05,38,2.30
2011,05,17,05,39,2.30
2011,05,17,05,40,2.30
2011,05,17,05,41,2.30
2011,05,17,05,42,2.30
2011,05,17,05,43,2.30
2011,05,17,05,44,2.40
2011,05,17,05,45,2.40
2011,05,17,05,46,2.40
2011,05,17,05,47,2.40
2011,05,17,05,48,2.40
2011,05,17,05,49,2.40
2011,05,17,05,50,2.40
2011,05,17,05,51,2.40
2011,05,17,05,52,2.40
2011,05,17,05,53,2.40
2011,05,17,05,54,2.40
2011,05,17,05,55,2.40
2011,05,17,05,56,2.40
2011,05,17,05,57,2.40
2011,05,17,05,58,2.40
2011,05,17,05,59,2.40
2011,05,17,06,00,2.40
2011,05,17,06,01,2.40
2011,05,17,06,02,2.40
2011,05,17,06,03,2.40
2011,05,17,06,04,2.30
2011,05,17,06,05,2.30
2011,05,17,06,06,2.30
2011,05,17,06,07,2.30
2011,05,17,06,08,2.30
2011,05,17,06,09,2.30
2011,05,17,06,10,2.30
2011,05,17,06,11,2.30
2011,05,17,06,12,2.30
2011,05,17,06,13,2.30
2011,05,17,06,14,2.30
2011,05,17,06,15,2.30
2011,05,17,06,16,2.40
2011,05,17,06,17,2.40
2011,05,17,06,18,2.40
2011,05,17,06,19,2.40
2011,05,17,06,20,2.40
2011,05,17,06,21,2.40
2011,05,17,06,22,2.40
2011,05,17,06,23,2.40
2011,05,17,06,24,2.40
2011,05,17,06,25,2.40
2011,05,17,06,26,2.40
2011,05,17,06,27,2.40
2011,05,17,06,28,2.40
2011,05,17,06,29,2.40
2011,05,17,06,30,2.50
2011,05,17,06,31,2.50
2011,05,17,06,32,2.50
2011,05,17,06,33,2.50
2011,05,17,06,34,2.50
2011,05,17,06,35,2.60
2011,05,17,06,36,2.60
2011,05,17,06,37,2.60
2011,05,17,06,38,2.60
2011,05,17,06,39,2.60
2011,05,17,06,40,2.70
2011,05,17,06,41,2.70
2011,05,17,06,42,2.70
2011,05,17,06,43,2.70
2011,05,17,06,44,2.80
2011,05,17,06,45,2.80
2011,05,17,06,46,2.80
2011,05,17,06,47,2.80
2011,05,17,06,48,2.90
2011,05,17,06,49,2.90
2011,05,17,06,50,2.90
2011,05,17,06,51,3.00
2011,05,17,06,52,3.00
2011,05,17,06,53,3.10
2011,05,17,06,54,3.10
2011,05,17,06,55,3.20
2011,05,17,06,56,3.20
2011,05,17,06,57,3.30
2011,05,17,06,58,3.30
2011,05,17,06,59,3.40
2011,05,17,07,00,3.50
2011,05,17,07,01,3.60
2011,05,17,07,02,3.60
2011,05,17,07,03,3.70
2011,05,17,07,04,3.80
2011,05,17,07,05,3.80
2011,05,17,07,06,3.90
2011,05,17,07,07,4.00
2011,05,17,07,08,4.10
2011,05,17,07,09,4.10
2011,05,17,07,10,4.20
2011,05,17,07,11,4.30
2011,05,17,07,12,4.30
2011,05,17,07,13,4.40
2011,05,17,07,14,4.50
2011,05,17,07,15,4.60
2011,05,17,07,16,4.60
2011,05,17,07,17,4.70
2011,05,17,07,18,4.80
2011,05,17,07,19,4.80
2011,05,17,07,20,4.90
2011,05,17,07,21,4.90
2011,05,17,07,22,4.90
2011,05,17,07,23,5.00
2011,05,17,07,24,5.10
2011,05,17,07,25,5.10
2011,05,17,07,26,5.20
2011,05,17,07,27,5.20
2011,05,17,07,28,5.30
2011,05,17,07,29,5.30
2011,05,17,07,30,5.40
2011,05,17,07,31,5.50
2011,05,17,07,32,5.60
2011,05,17,07,33,5.60
2011,05,17,07,34,5.70
2011,05,17,07,35,5.80
2011,05,17,07,36,5.80
2011,05,17,07,37,5.90
2011,05,17,07,38,5.90
2011,05,17,07,39,6.00
2011,05,17,07,40,6.00
2011,05,17,07,41,6.10
2011,05,17,07,42,6.20
2011,05,17,07,43,6.30
2011,05,17,07,44,6.30
2011,05,17,07,45,6.40
2011,05,17,07,46,6.50
2011,05,17,07,47,6.60
2011,05,17,07,48,6.70
2011,05,17,07,49,6.80
2011,05,17,07,50,6.90
2011,05,17,07,51,7.00
2011,05,17,07,52,7.10
2011,05,17,07,53,7.20
2011,05,17,07,54,7.20
2011,05,17,07,55,7.30
2011,05,17,07,56,7.40
2011,05,17,07,57,7.50
2011,05,17,07,58,7.50
2011,05,17,07,59,7.60
2011,05,17,08,00,7.70
2011,05,17,08,01,7.70
2011,05,17,08,02,7.80
2011,05,17,08,03,7.90
2011,05,17,08,04,7.90
2011,05,17,08,05,8.00
2011,05,17,08,06,8.10
2011,05,17,08,07,8.10
2011,05,17,08,08,8.20
2011,05,17,08,09,8.30
2011,05,17,08,10,8.50
2011,05,17,08,11,8.50
2011,05,17,08,12,8.60
2011,05,17,08,13,8.70
2011,05,17,08,14,8.80
2011,05,17,08,15,8.80
2011,05,17,08,16,8.90
2011,05,17,08,17,9.00
2011,05,17,08,18,9.10
2011,05,17,08,19,9.20
2011,05,17,08,20,9.30
2011,05,17,08,21,9.40
2011,05,17,08,22,9.40
2011,05,17,08,23,9.50
2011,05,17,08,24,9.60
2011,05,17,08,25,9.60
2011,05,17,08,26,9.70
2011,05,17,08,27,9.80
2011,05,17,08,28,9.80
2011,05,17,08,29,9.90
2011,05,17,08,30,10.00
2011,05,17,08,31,10.00
2011,05,17,08,32,10.00
2011,05,17,08,33,10.10
2011,05,17,08,34,10.10
2011,05,17,08,35,10.20
2011,05,17,08,36,10.20
2011,05,17,08,37,10.20
2011,05,17,08,38,10.30
2011,05,17,08,39,10.30
2011,05,17,08,40,10.30
2011,05,17,08,41,10.40
2011,05,17,08,42,10.40
2011,05,17,08,43,10.40
2011,05,17,08,44,10.40
2011,05,17,08,45,10.50
2011,05,17,08,46,10.60
2011,05,17,08,47,10.60
2011,05,17,08,48,10.70
2011,05,17,08,49,10.80
2011,05,17,08,50,10.80
2011,05,17,08,51,10.80
2011,05,17,08,52,10.80
2011,05,17,08,53,10.80
2011,05,17,08,54,10.80
2011,05,17,08,55,10.80
2011,05,17,08,56,10.80
2011,05,17,08,57,10.80
2011,05,17,08,58,10.80
2011,05,17,08,59,10.80
2011,05,17,09,00,10.70
2011,05,17,09,01,10.80
2011,05,17,09,02,10.80
2011,05,17,09,03,10.80
2011,05,17,09,04,10.80
2011,05,17,09,05,10.80
2011,05,17,09,06,10.80
2011,05,17,09,07,10.90
2011,05,17,09,08,10.90
2011,05,17,09,09,11.00
2011,05,17,09,10,11.10
2011,05,17,09,11,11.10
2011,05,17,09,12,11.20
2011,05,17,09,13,11.20
2011,05,17,09,14,11.20
2011,05,17,09,15,11.20
2011,05,17,09,16,11.20
2011,05,17,09,17,11.20
2011,05,17,09,18,11.20
2011,05,17,09,19,11.20
2011,05,17,09,20,11.20
2011,05,17,09,21,11.20
2011,05,17,09,22,11.30
2011,05,17,09,23,11.30
2011,05,17,09,24,11.40
2011,05,17,09,25,11.40
2011,05,17,09,26,11.40
2011,05,17,09,27,11.50
2011,05,17,09,28,11.40
2011,05,17,09,29,11.50
2011,05,17,09,30,11.50
2011,05,17,09,31,11.50
2011,05,17,09,32,11.50
2011,05,17,09,33,11.50
2011,05,17,09,34,11.40
2011,05,17,09,35,11.50
2011,05,17,09,36,11.50
2011,05,17,09,37,11.60
2011,05,17,09,38,11.60
2011,05,17,09,39,11.70
2011,05,17,09,40,11.80
2011,05,17,09,41,11.80
2011,05,17,09,42,11.90
2011,05,17,09,43,11.90
2011,05,17,09,44,12.00
2011,05,17,09,45,12.00
2011,05,17,09,46,12.00
2011,05,17,09,47,12.00
2011,05,17,09,48,12.00
2011,05,17,09,49,11.90
2011,05,17,09,50,11.80
2011,05,17,09,51,11.80
2011,05,17,09,52,11.80
2011,05,17,09,53,11.80
2011,05,17,09,54,11.80
2011,05,17,09,55,11.80
2011,05,17,09,56,11.80
2011,05,17,09,57,11.80
2011,05,17,09,58,11.80
2011,05,17,09,59,11.80
2011,05,17,10,00,11.80
2011,05,17,10,01,11.80
2011,05,17,10,02,11.80
2011,05,17,10,03,11.80
2011,05,17,10,04,11.70
2011,05,17,10,05,11.60
2011,05,17,10,06,11.50
2011,05,17,10,07,11.50
2011,05,17,10,08,11.40
2011,05,17,10,09,11.40
2011,05,17,10,10,11.40
2011,05,17,10,11,11.40
2011,05,17,10,12,11.40
2011,05,17,10,13,11.50
2011,05,17,10,14,11.60
2011,05,17,10,15,11.70
2011,05,17,10,16,11.70
2011,05,17,10,17,11.80
2011,05,17,10,18,11.80
2011,05,17,10,19,11.80
2011,05,17,10,20,11.90
2011,05,17,10,21,12.00
2011,05,17,10,22,12.10
2011,05,17,10,23,12.20
2011,05,17,10,24,12.20
2011,05,17,10,25,12.30
2011,05,17,10,26,12.30
2011,05,17,10,27,12.30
2011,05,17,10,28,12.30
2011,05,17,10,29,12.30
2011,05,17,10,30,12.20
2011,05,17,10,31,12.20
2011,05,17,10,32,12.10
2011,05,17,10,33,12.00
2011,05,17,10,34,11.80
2011,05,17,10,35,11.70
2011,05,17,10,36,11.60
2011,05,17,10,37,11.50
2011,05,17,10,38,11.50
2011,05,17,10,39,11.50
2011,05,17,10,40,11.40
2011,05,17,10,41,11.40
2011,05,17,10,42,11.40
2011,05,17,10,43,11.30
2011,05,17,10,44,11.30
2011,05,17,10,45,11.30
2011,05,17,10,46,11.40
2011,05,17,10,47,11.40
2011,05,17,10,48,11.50
2011,05,17,10,49,11.50
2011,05,17,10,50,11.60
2011,05,17,10,51,11.60
2011,05,17,10,52,11.60
2011,05,17,10,53,11.60
2011,05,17,10,54,11.60
2011,05,17,10,55,11.70
2011,05,17,10,56,11.70
2011,05,17,10,57,11.80
2011,05,17,10,58,11.90
2011,05,17,10,59,12.10
2011,05,17,11,00,12.20
2011,05,17,11,01,12.40
2011,05,17,11,02,12.50
2011,05,17,11,03,12.60
2011,05,17,11,04,12.70
2011,05,17,11,05,12.70
2011,05,17,11,06,12.80
2011,05,17,11,07,12.80
2011,05,17,11,08,12.80
2011,05,17,11,09,12.80
2011,05,17,11,10,12.80
2011,05,17,11,11,12.70
2011,05,17,11,12,12.50
2011,05,17,11,13,12.30
2011,05,17,11,14,12.20
2011,05,17,11,15,12.10
2011,05,17,11,16,12.10
2011,05,17,11,17,12.10
2011,05,17,11,18,12.10
2011,05,17,11,19,12.20
2011,05,17,11,20,12.20
2011,05,17,11,21,12.30
2011,05,17,11,22,12.40
2011,05,17,11,23,12.50
2011,05,17,11,24,12.40
2011,05,17,11,25,12.40
2011,05,17,11,26,12.40
2011,05,17,11,27,12.30
2011,05,17,11,28,12.30
2011,05,17,11,29,12.30
2011,05,17,11,30,12.30
2011,05,17,11,31,12.40
2011,05,17,11,32,12.50
2011,05,17,11,33,12.70
2011,05,17,11,34,12.80
2011,05,17,11,35,12.90
2011,05,17,11,36,12.90
2011,05,17,11,37,13.00
2011,05,17,11,38,12.90
2011,05,17,11,39,12.90
2011,05,17,11,40,12.80
2011,05,17,11,41,12.80
2011,05,17,11,42,12.80
2011,05,17,11,43,12.70
2011,05,17,11,44,12.60
2011,05,17,11,45,12.60
2011,05,17,11,46,12.60
2011,05,17,11,47,12.60
2011,05,17,11,48,12.60
2011,05,17,11,49,12.60
2011,05,17,11,50,12.70
2011,05,17,11,51,12.70
2011,05,17,11,52,12.70
2011,05,17,11,53,12.60
2011,05,17,11,54,12.60
2011,05,17,11,55,12.60
2011,05,17,11,56,12.70
2011,05,17,11,57,12.80
2011,05,17,11,58,12.90
2011,05,17,11,59,13.00
2011,05,17,12,00,13.00
2011,05,17,12,01,13.00
2011,05,17,12,02,12.90
2011,05,17,12,03,12.80
2011,05,17,12,04,12.80
2011,05,17,12,05,12.80
2011,05,17,12,06,12.70
2011,05,17,12,07,12.70
2011,05,17,12,08,12.70
2011,05,17,12,09,12.80
2011,05,17,12,10,12.90
2011,05,17,12,11,13.00
2011,05,17,12,12,13.10
2011,05,17,12,13,13.20
2011,05,17,12,14,13.10
2011,05,17,12,15,13.20
2011,05,17,12,16,13.20
2011,05,17,12,17,13.30
2011,05,17,12,18,13.40
2011,05,17,12,19,13.40
2011,05,17,12,20,13.40
2011,05,17,12,21,13.40
2011,05,17,12,22,13.50
2011,05,17,12,23,13.50
2011,05,17,12,24,13.60
2011,05,17,12,25,13.60
2011,05,17,12,26,13.50
2011,05,17,12,27,13.40
2011,05,17,12,28,13.40
2011,05,17,12,29,13.40
2011,05,17,12,30,13.40
2011,05,17,12,31,13.40
2011,05,17,12,32,13.30
2011,05,17,12,33,13.30
2011,05,17,12,34,13.40
2011,05,17,12,35,13.60
2011,05,17,12,36,13.80
2011,05,17,12,37,13.90
2011,05,17,12,38,14.00
2011,05,17,12,39,14.10
2011,05,17,12,40,14.20
2011,05,17,12,41,14.20
2011,05,17,12,42,14.20
2011,05,17,12,43,14.30
2011,05,17,12,44,14.30
2011,05,17,12,45,14.30
2011,05,17,12,46,14.40
2011,05,17,12,47,14.60
2011,05,17,12,48,14.60
2011,05,17,12,49,14.50
2011,05,17,12,50,14.30
2011,05,17,12,51,14.20
2011,05,17,12,52,14.20
2011,05,17,12,53,14.10
2011,05,17,12,54,14.10
2011,05,17,12,55,14.10
2011,05,17,12,56,14.10
2011,05,17,12,57,14.20
2011,05,17,12,58,14.40
2011,05,17,12,59,14.60
2011,05,17,13,00,14.70
2011,05,17,13,01,14.80
2011,05,17,13,02,14.90
2011,05,17,13,03,15.00
2011,05,17,13,04,15.00
2011,05,17,13,05,15.20
2011,05,17,13,06,15.30
2011,05,17,13,07,15.30
2011,05,17,13,08,15.30
2011,05,17,13,09,15.40
2011,05,17,13,10,15.30
2011,05,17,13,11,15.10
2011,05,17,13,12,15.00
2011,05,17,13,13,15.00
2011,05,17,13,14,15.00
2011,05,17,13,15,15.00
2011,05,17,13,16,14.90
2011,05,17,13,17,14.90
2011,05,17,13,18,15.00
2011,05,17,13,19,14.90
2011,05,17,13,20,14.80
2011,05,17,13,21,14.80
2011,05,17,13,22,14.70
2011,05,17,13,23,14.60
2011,05,17,13,24,14.50
2011,05,17,13,25,14.30
2011,05,17,13,26,14.10
2011,05,17,13,27,14.00
2011,05,17,13,28,13.80
2011,05,17,13,29,13.60
2011,05,17,13,30,13.40
2011,05,17,13,31,13.20
2011,05,17,13,32,13.10
2011,05,17,13,33,13.00
2011,05,17,13,34,13.00
2011,05,17,13,35,13.10
2011,05,17,13,36,13.30
2011,05,17,13,37,13.50
2011,05,17,13,38,13.60
2011,05,17,13,39,13.70
2011,05,17,13,40,13.80
2011,05,17,13,41,13.80
2011,05,17,13,42,13.80
2011,05,17,13,43,13.80
2011,05,17,13,44,13.80
2011,05,17,13,45,13.80
2011,05,17,13,46,13.80
2011,05,17,13,47,13.80
2011,05,17,13,48,13.80
2011,05,17,13,49,13.90
2011,05,17,13,50,13.90
2011,05,17,13,51,13.90
2011,05,17,13,52,13.80
2011,05,17,13,53,14.00
2011,05,17,13,54,14.10
2011,05,17,13,55,14.20
2011,05,17,13,56,14.10
2011,05,17,13,57,14.00
2011,05,17,13,58,13.80
2011,05,17,13,59,13.70
2011,05,17,14,00,13.60
2011,05,17,14,01,13.40
2011,05,17,14,02,13.30
2011,05,17,14,03,13.30
2011,05,17,14,04,13.40
2011,05,17,14,05,13.50
2011,05,17,14,06,13.70
2011,05,17,14,07,13.90
2011,05,17,14,08,14.10
2011,05,17,14,09,14.20
2011,05,17,14,10,14.40
2011,05,17,14,11,14.50
2011,05,17,14,12,14.70
2011,05,17,14,13,14.80
2011,05,17,14,14,14.90
2011,05,17,14,15,14.90
2011,05,17,14,16,14.80
2011,05,17,14,17,14.80
2011,05,17,14,18,14.70
2011,05,17,14,19,14.70
2011,05,17,14,20,14.70
2011,05,17,14,21,14.80
2011,05,17,14,22,15.00
2011,05,17,14,23,15.00
2011,05,17,14,24,15.00
2011,05,17,14,25,15.00
2011,05,17,14,26,15.00
2011,05,17,14,27,15.00
2011,05,17,14,28,15.10
2011,05,17,14,29,15.10
2011,05,17,14,30,15.00
2011,05,17,14,31,15.00
2011,05,17,14,32,15.00
2011,05,17,14,33,14.90
2011,05,17,14,34,14.70
2011,05,17,14,35,14.60
2011,05,17,14,36,14.50
2011,05,17,14,37,14.40
2011,05,17,14,38,14.30
2011,05,17,14,39,14.30
2011,05,17,14,40,14.30
2011,05,17,14,41,14.30
2011,05,17,14,42,14.40
2011,05,17,14,43,14.30
2011,05,17,14,44,14.20
2011,05,17,14,45,14.20
2011,05,17,14,46,14.10
2011,05,17,14,47,14.10
2011,05,17,14,48,14.10
2011,05,17,14,49,14.10
2011,05,17,14,50,14.10
2011,05,17,14,51,14.10
2011,05,17,14,52,14.10
2011,05,17,14,53,14.20
2011,05,17,14,54,14.40
2011,05,17,14,55,14.50
2011,05,17,14,56,14.60
2011,05,17,14,57,14.70
2011,05,17,14,58,14.80
2011,05,17,14,59,14.80
2011,05,17,15,00,14.70
2011,05,17,15,01,14.70
2011,05,17,15,02,14.70
2011,05,17,15,03,14.70
2011,05,17,15,04,14.70
2011,05,17,15,05,14.60
2011,05,17,15,06,14.50
2011,05,17,15,07,14.30
2011,05,17,15,08,14.20
2011,05,17,15,09,14.10
2011,05,17,15,10,14.10
2011,05,17,15,11,14.10
2011,05,17,15,12,14.10
2011,05,17,15,13,14.00
2011,05,17,15,14,14.10
2011,05,17,15,15,14.30
2011,05,17,15,16,14.50
2011,05,17,15,17,14.60
2011,05,17,15,18,14.80
2011,05,17,15,19,14.90
2011,05,17,15,20,15.00
2011,05,17,15,21,15.00
2011,05,17,15,22,15.30
2011,05,17,15,23,15.40
2011,05,17,15,24,15.50
2011,05,17,15,25,15.50
2011,05,17,15,26,15.50
2011,05,17,15,27,15.70
2011,05,17,15,28,15.80
2011,05,17,15,29,15.90
2011,05,17,15,30,16.00
2011,05,17,15,31,16.10
2011,05,17,15,32,16.10
2011,05,17,15,33,16.00
2011,05,17,15,34,15.90
2011,05,17,15,35,15.70
2011,05,17,15,36,15.50
2011,05,17,15,37,15.30
2011,05,17,15,38,15.30
2011,05,17,15,39,15.30
2011,05,17,15,40,15.40
2011,05,17,15,41,15.50
2011,05,17,15,42,15.50
2011,05,17,15,43,15.50
2011,05,17,15,44,15.60
2011,05,17,15,45,15.60
2011,05,17,15,46,15.70
2011,05,17,15,47,15.70
2011,05,17,15,48,15.80
2011,05,17,15,49,15.90
2011,05,17,15,50,16.10
2011,05,17,15,51,16.20
2011,05,17,15,52,16.20
2011,05,17,15,53,16.20
2011,05,17,15,54,16.30
2011,05,17,15,55,16.30
2011,05,17,15,56,16.30
2011,05,17,15,57,16.30
2011,05,17,15,58,16.40
2011,05,17,15,59,16.40
2011,05,17,16,00,16.40
2011,05,17,16,01,16.20
2011,05,17,16,02,16.10
2011,05,17,16,03,16.10
2011,05,17,16,04,16.20
2011,05,17,16,05,16.30
2011,05,17,16,06,16.40
2011,05,17,16,07,16.50
2011,05,17,16,08,16.50
2011,05,17,16,09,16.60
2011,05,17,16,10,16.60
2011,05,17,16,11,16.70
2011,05,17,16,12,16.80
2011,05,17,16,13,16.90
2011,05,17,16,14,17.00
2011,05,17,16,15,17.20
2011,05,17,16,16,17.30
2011,05,17,16,17,17.30
2011,05,17,16,18,17.30
2011,05,17,16,19,17.30
2011,05,17,16,20,17.20
2011,05,17,16,21,17.20
2011,05,17,16,22,17.10
2011,05,17,16,23,16.90
2011,05,17,16,24,16.70
2011,05,17,16,25,16.40
2011,05,17,16,26,16.20
2011,05,17,16,27,16.20
2011,05,17,16,28,16.20
2011,05,17,16,29,16.30
2011,05,17,16,30,16.40
2011,05,17,16,31,16.40
2011,05,17,16,32,16.40
2011,05,17,16,33,16.30
2011,05,17,16,34,16.20
2011,05,17,16,35,16.20
2011,05,17,16,36,16.20
2011,05,17,16,37,16.30
2011,05,17,16,38,16.40
2011,05,17,16,39,16.40
2011,05,17,16,40,16.40
2011,05,17,16,41,16.50
2011,05,17,16,42,16.60
2011,05,17,16,43,16.60
2011,05,17,16,44,16.60
2011,05,17,16,45,16.50
2011,05,17,16,46,16.50
2011,05,17,16,47,16.40
2011,05,17,16,48,16.40
2011,05,17,16,49,16.40
2011,05,17,16,50,16.40
2011,05,17,16,51,16.20
2011,05,17,16,52,16.10
2011,05,17,16,53,16.10
2011,05,17,16,54,16.20
2011,05,17,16,55,16.20
2011,05,17,16,56,16.30
2011,05,17,16,57,16.50
2011,05,17,16,58,16.50
2011,05,17,16,59,16.50
2011,05,17,17,00,16.60
2011,05,17,17,01,16.60
2011,05,17,17,02,16.50
2011,05,17,17,03,16.40
2011,05,17,17,04,16.30
2011,05,17,17,05,16.30
2011,05,17,17,06,16.30
2011,05,17,17,07,16.30
2011,05,17,17,08,16.20
2011,05,17,17,09,16.20
2011,05,17,17,10,16.20
2011,05,17,17,11,16.30
2011,05,17,17,12,16.50
2011,05,17,17,13,16.60
2011,05,17,17,14,16.80
2011,05,17,17,15,16.90
2011,05,17,17,16,17.00
2011,05,17,17,17,17.10
2011,05,17,17,18,17.20
2011,05,17,17,19,17.30
2011,05,17,17,20,17.30
2011,05,17,17,21,17.30
2011,05,17,17,22,17.40
2011,05,17,17,23,17.40
2011,05,17,17,24,17.40
2011,05,17,17,25,17.50
2011,05,17,17,26,17.50
2011,05,17,17,27,17.40
2011,05,17,17,28,17.40
2011,05,17,17,29,17.20
2011,05,17,17,30,17.10
2011,05,17,17,31,17.00
2011,05,17,17,32,16.80
2011,05,17,17,33,16.70
2011,05,17,17,34,16.70
2011,05,17,17,35,16.60
2011,05,17,17,36,16.50
2011,05,17,17,37,16.40
2011,05,17,17,38,16.30
2011,05,17,17,39,16.30
2011,05,17,17,40,16.20
2011,05,17,17,41,16.00
2011,05,17,17,42,15.90
2011,05,17,17,43,15.90